Flag for U.S.A. Weather past 2 weeks in Kailua-Kona, Hawaii, U.S.A.

Now
76 °F

Passing clouds.


Feels Like: 78 °F
Forecast: 69 / 80 °F
Wind: No wind

Location: Keahole Airport

Current Time: Apr 28, 2015 at 12:46:24 AM

Latest Report: Apr 27, 2015 at 11:53 PM


Visibility: 10 mi

Pressure: 30.03 "Hg

Humidity: 69%

Dew point: 65 °F

Location of Kailua-KonaLocation

Historic Weather in Kailua-Kona — Graph

°F

Kailua-Kona temperature yesterday

Maximum temperature yesterday: 82 °F (at 10:53 AM)
Minimum temperature yesterday: 75 °F (at 5:53 AM)
Average temperature yesterday: 78 °F

Past Weeks' High & Low Weather Summary

 TemperatureHumidityPressure
High85 °F (Apr 26, 12:53 PM)89% (Apr 15, 5:14 PM)30.09 "Hg (Apr 15, 5:14 PM)
Low70 °F (Apr 16, 4:53 AM)47% (Apr 17, 8:53 PM)29.93 "Hg (Apr 24, 4:53 PM)
Average78 °F67%30.00 "Hg
* Reported Apr 12 10:53 PM — Apr 27 10:53 PM, Kailua-Kona, Weather by CustomWeather, © 2015

Note: Actual official high and low records may vary slightly from our data, if they occured in-between our weather recording intervals... More about our weather records

Advertising

Kailua-Kona weather history for previous 24 hours

 ConditionsComfort  
Time TempWeatherWind HumidityBarometerVisibility
10:53 PM
Mon, Apr 27
76 °FPassing clouds.3 mph77%30.05 "Hg8 mi
9:53 PM77 °FPassing clouds.No wind74%30.05 "Hg7 mi
8:53 PM77 °FMostly cloudy.7 mph71%30.04 "Hg8 mi
7:53 PM78 °FOvercast.7 mph71%30.03 "Hg8 mi
6:53 PM77 °FLight rain. Overcast.10 mph79%30.01 "Hg5 mi
5:53 PM79 °FPartly sunny.10 mph72%29.99 "Hg7 mi
4:53 PM78 °FLight rain. Cloudy.10 mph79%29.98 "Hg5 mi
3:53 PM80 °FPartly sunny.13 mph71%29.97 "Hg6 mi
2:53 PM80 °FOvercast.10 mph71%29.98 "Hg7 mi
2:16 PM81 °FCloudy.9 mph70%29.99 "Hg8 mi
1:53 PM81 °FBroken clouds.10 mph69%29.99 "Hg8 mi
12:53 PM81 °FMore clouds than sun.13 mph69%30.01 "Hg10 mi
11:53 AM80 °FMore clouds than sun.12 mph74%30.02 "Hg10 mi
10:53 AM82 °FScattered clouds.9 mph67%30.03 "Hg10 mi
9:53 AM80 °FOvercast.12 mph69%30.03 "Hg10 mi
8:53 AM79 °FBroken clouds.8 mph74%30.03 "Hg10 mi
7:53 AM78 °FBroken clouds.8 mph74%30.02 "Hg10 mi
6:53 AM76 °FOvercast.5 mph72%30.01 "Hg10 mi
5:53 AM75 °FPassing clouds.7 mph74%29.99 "Hg10 mi
4:53 AM77 °FOvercast.14 mph77%29.96 "Hg10 mi
4:32 AM75 °FPartly cloudy.8 mph74%29.96 "Hg10 mi
3:53 AM77 °FMostly cloudy.10 mph82%29.95 "Hg9 mi
3:46 AM77 °FMostly cloudy.13 mph83%29.95 "Hg9 mi
2:53 AM77 °FMostly cloudy.14 mph82%29.96 "Hg10 mi
2:41 AM77 °FMostly cloudy.15 mph83%29.96 "Hg10 mi
2:26 AM77 °FOvercast.12 mph83%29.97 "Hg9 mi
2:17 AM77 °FMostly cloudy.14 mph83%29.97 "Hg9 mi
1:53 AM77 °FOvercast.10 mph82%29.98 "Hg10 mi
1:11 AM77 °FMostly cloudy.12 mph83%29.99 "Hg9 mi
12:53 AM77 °FOvercast.10 mph85%29.99 "Hg9 mi
12:28 AM77 °FMostly cloudy.14 mph83%30.00 "Hg9 mi
Weather by CustomWeather, © 2015

See weather overviewHow to use our weather pages